Showing default

JILIN-01 GAOFEN 3F, 46458

Orbit data source: Space-Track

JILIN-01 GAOFEN 3F, 46458 is a payload satellite owned by Changguang WJ (CN) in SSO that was launched on Tue, 15 Sep 2020 UTC via a CHANG ZHENG 11 launch vehicle from the Yellow Sea Launch Area, China (YSLA). Payload-class satellites include a variety of spacecraft equipped with specific instruments for various scientific and technological missions. These include communications satellites like Starlink; space stations such as the ISS; scientific satellites like the Hubble; Earth observation satellites from companies like Planet Labs, Umbra, and HawkEye 360; GPS; miniature CubeSats for education and research; and military/defense satellites.

Loading next visibility...
Identifier
46458, 2020-065E
Orbit
SSO
Last TLE update
7 hours ago
Origin
Flag of CNCGSTL (CN / PRC)
Manufacturer
Changguang WJ
Mission
Operational Commercial Imaging
Bus & Motor
JL-1, Unknown motor
Mass
42 kg wet, 42 kg dry
Launch date (UTC)
2020-09-15 (5 years ago)
Launch vehicle
CHANG ZHENG 11
Launch site
Yellow Sea Launch Area, China (YSLA)
Object type
Payload
Rocket body
Debris
Shape & HBR
Box + 2 Pan, 1.5 m
Radar Cross Section
2.000 m², Medium (>0.1 m² and < 1m²)

Expand to show TLE details & history

TLE from 7 hours ago
0 JILIN-01 GAOFEN 3F
1 46458U 20065E   25185.92741254  .00015531  00000-0  43112-3 0  9994
2 46458  97.2771 230.3211 0021013 342.3651  17.6862 15.36765274266016
Epoch: 2025-07-04T22:15Z
TLE epoch observation values (Epoch: 2025-07-04T22:15:28.443Z)
Latitude
0.00001°
Longitude
-26.7202°
Altitude
445.117 km
Speed
7.653 km/s
True Right ascension
15h 21m 17s
True Declination
0° 00' 00"
Sunlit
Object was in full shadow at epoch
Visualization orbit readout
Latitude
52.57586°
Longitude
163.1128°
Altitude
476.111 km
Speed
7.626 km/s
Apparent Right ascension
04h 31m 00s
Apparent Declination
8° 31' 19"
Sunlit
Object is in daylight
Visualization observer readout
Local Sidereal Time
16:56:52
Azimuth
8.513° NNE
Elevation
-41.193°
Doppler factor
1
Orbital elements
Apogee altitude
466.974 km
Perigee altitude
438.267 km
Semi-major axis
6,830.757 km
Eccentricity
0.0021
Inclination
97.2771°
RAAN
230.3211°
Arg. of periapsis
342.3651°
True anomaly
Unknown
Mean anomaly
17.6862°
Eccentric anomaly
Unknown
Mean motion
3.8445 °/min
Orbital period
93.64 mins
BSTAR
0.00043112
Loading maneuver chart data...
Loading SW <> Apogee altitude chart data...
Loading historical data...
Loading historical data...
Loading historical data...
Loading historical data...
Loading historical data...
Loading historical data...
Loading historical data...

JILIN-01 GAOFEN 3F Visibility forecast

Observer location: undefined°, undefined°

Span
Click to sort rows by Start time (UTC) header in descending order
Start Az.
Max El. time (UTC)
Max El. Az.
Max El.
End time (UTC)
End Az.
6 mins2025-07-05 16:00:32.291Z3.208° NNE2025-07-05 16:03:32.291Z241.665° WSW40.257°2025-07-05 16:06:32.291Z201.969° SSW
4 mins2025-07-06 02:32:32.291Z118.041° SE2025-07-06 02:33:32.291Z91.148° ESE26.411°2025-07-06 02:36:32.291Z13.341° NNE
|